Flag for U.S.A. Weather past 2 weeks in Stroudsburg, Pennsylvania, U.S.A.

Now
64 °F

Partly sunny.


Feels Like: 64 °F
Forecast: 51 / 78 °F
Wind: 6 mph from West

Location: Pocono Mountains Municipal Airport

Current Time: Jul 30, 2014 at 11:37:37 AM

Latest Report: Jul 30, 2014 at 10:53 AM


Visibility: 10 mi

Pressure: 30.08 "Hg

Humidity: 58%

Dew point: 49 °F

Location of StroudsburgLocation

Historic Weather in Stroudsburg — Graph

°F

Stroudsburg temperature yesterday

Maximum temperature yesterday: 65 °F (at 12:53 PM)
Minimum temperature yesterday: 52 °F (at 11:53 PM)
Average temperature yesterday: 59 °F

Past Weeks' High & Low Weather Summary

 TemperatureHumidityPressure
High83 °F (Jul 23, 12:53 PM)97% (Jul 30, 5:53 AM)30.27 "Hg (Jul 30, 5:53 AM)
Low45 °F (Jul 30, 3:53 AM)41% (Jul 18, 3:53 PM)29.55 "Hg (Jul 28, 5:53 AM)
Average66 °F73%29.99 "Hg
* Reported Jul 15 9:53 AM — Jul 30 9:53 AM, Stroudsburg, Weather by CustomWeather, © 2014

Note: Actual official high and low records may vary slightly from our data, if they occured in-between our weather recording intervals... More about our weather records

Advertising

Stroudsburg weather history for previous 24 hours

 ConditionsComfort  
Time TempWeatherWind HumidityBarometerVisibility
9:53 AM
Jul 30
63 °FSunny.5 mph68%30.07 "Hg10 mi
8:53 AM59 °FSunny.No wind78%30.07 "Hg10 mi
7:53 AM55 °FPassing clouds.3 mph87%30.06 "Hg10 mi
6:53 AM49 °FClear.No wind93%30.05 "Hg10 mi
5:53 AM45 °FClear.5 mph97%30.04 "Hg9 mi
4:53 AM46 °FClear.5 mph93%30.03 "Hg10 mi
3:53 AM45 °FPassing clouds.3 mph93%30.03 "Hg10 mi
2:53 AM48 °FClear.No wind93%30.02 "Hg10 mi
1:53 AM49 °FClear.No wind93%30.02 "Hg10 mi
12:53 AM51 °FClear.3 mph89%30.01 "Hg10 mi
11:53 PM
Jul 29
52 °FPassing clouds.3 mph89%30.01 "Hg10 mi
10:53 PM54 °FPassing clouds.No wind86%30.01 "Hg10 mi
9:53 PM57 °FOvercast.5 mph74%30.01 "Hg10 mi
8:53 PM59 °FOvercast.6 mph72%30.00 "Hg10 mi
7:53 PM61 °FOvercast.7 mph65%29.99 "Hg10 mi
6:53 PM62 °FOvercast.8 mph62%29.98 "Hg10 mi
5:53 PM63 °FOvercast.7 mph60%29.97 "Hg10 mi
4:53 PM64 °FOvercast.8 mph50%29.95 "Hg10 mi
3:53 PM65 °FOvercast.8 mph52%29.94 "Hg10 mi
2:53 PM64 °FOvercast.8 mph54%29.93 "Hg10 mi
1:53 PM65 °FPartly sunny.9 mph49%29.92 "Hg10 mi
12:53 PM65 °FPartly sunny.12 mph52%29.91 "Hg10 mi
11:53 AM63 °FPartly sunny.13 mph54%29.92 "Hg10 mi
Weather by CustomWeather, © 2014

See weather overviewHow to use our weather pages